Time,TemperatureF,DewpointF,PressureIn,WindDirection,WindDirectionDegrees,WindSpeedMPH,WindSpeedGustMPH,Humidity,HourlyPrecipIn,Conditions,Clouds,dailyrainin,SoftwareType,DateUTC
2013-05-22 00:01:00,74.2,66.2,29.83,SW,219,4.0,6.0,76,0.00,,---,0.00,VWS V13.01,2013-05-22 04:01:00,
2013-05-22 00:06:00,73.8,66.2,29.82,SW,219,3.0,7.0,77,0.00,,---,0.00,VWS V13.01,2013-05-22 04:06:00,
2013-05-22 00:11:00,73.4,65.8,29.83,SW,232,2.0,7.0,77,0.00,,---,0.00,VWS V13.01,2013-05-22 04:11:00,
2013-05-22 00:16:00,73.3,65.3,29.83,SW,225,1.0,7.0,76,0.00,,---,0.00,VWS V13.01,2013-05-22 04:16:00,
2013-05-22 00:21:00,73.2,65.2,29.82,SSW,194,5.0,7.0,76,0.00,,---,0.00,VWS V13.01,2013-05-22 04:21:00,
2013-05-22 00:26:00,73.2,64.8,29.82,SW,221,3.0,7.0,75,0.00,,---,0.00,VWS V13.01,2013-05-22 04:26:00,
2013-05-22 00:31:00,73.3,64.5,29.82,SW,221,2.0,6.0,74,0.00,,---,0.00,VWS V13.01,2013-05-22 04:31:00,
2013-05-22 00:36:00,73.2,65.2,29.82,SSW,211,0.0,6.0,76,0.00,,---,0.00,VWS V13.01,2013-05-22 04:36:00,
2013-05-22 00:41:00,73.1,65.1,29.82,SSW,211,1.0,6.0,76,0.00,,---,0.00,VWS V13.01,2013-05-22 04:41:00,
2013-05-22 00:46:00,72.8,65.2,29.83,WNW,292,1.0,6.0,77,0.00,,---,0.00,VWS V13.01,2013-05-22 04:46:00,
2013-05-22 00:51:00,72.6,65.0,29.82,West,273,1.0,6.0,77,0.00,,---,0.00,VWS V13.01,2013-05-22 04:51:00,
2013-05-22 00:56:00,72.4,65.2,29.82,SW,236,1.0,6.0,78,0.00,,---,0.00,VWS V13.01,2013-05-22 04:56:00,
2013-05-22 01:01:00,72.1,64.9,29.82,SW,234,2.0,3.0,78,0.00,,---,0.00,VWS V13.01,2013-05-22 05:01:00,
2013-05-22 01:06:00,71.9,65.0,29.82,SW,234,1.0,3.0,79,0.00,,---,0.00,VWS V13.01,2013-05-22 05:06:00,
2013-05-22 01:11:00,71.8,64.9,29.82,SW,234,0.0,3.0,79,0.00,,---,0.00,VWS V13.01,2013-05-22 05:11:00,
2013-05-22 01:16:00,71.5,64.7,29.82,SW,234,1.0,3.0,79,0.00,,---,0.00,VWS V13.01,2013-05-22 05:16:00,
2013-05-22 01:21:00,71.3,64.5,29.82,WSW,240,1.0,3.0,79,0.00,,---,0.00,VWS V13.01,2013-05-22 05:21:00,
2013-05-22 01:26:00,71.1,64.6,29.82,WSW,240,1.0,3.0,80,0.00,,---,0.00,VWS V13.01,2013-05-22 05:26:00,
2013-05-22 01:31:00,71.0,64.5,29.82,SW,234,4.0,5.0,80,0.00,,---,0.00,VWS V13.01,2013-05-22 05:31:00,
2013-05-22 01:36:00,70.9,64.1,29.82,SW,225,3.0,5.0,79,0.00,,---,0.00,VWS V13.01,2013-05-22 05:36:00,
2013-05-22 01:41:00,70.8,64.0,29.82,SSW,210,3.0,5.0,79,0.00,,---,0.00,VWS V13.01,2013-05-22 05:41:00,
2013-05-22 01:46:00,70.8,64.0,29.82,SSW,207,4.0,6.0,79,0.00,,---,0.00,VWS V13.01,2013-05-22 05:46:00,
2013-05-22 01:51:00,70.8,63.6,29.82,SW,217,2.0,6.0,78,0.00,,---,0.00,VWS V13.01,2013-05-22 05:51:00,
2013-05-22 01:56:00,70.7,63.5,29.81,SW,231,3.0,6.0,78,0.00,,---,0.00,VWS V13.01,2013-05-22 05:56:00,
2013-05-22 02:01:00,70.6,63.4,29.81,SSW,205,4.0,5.0,78,0.00,,---,0.00,VWS V13.01,2013-05-22 06:01:00,
2013-05-22 02:06:00,70.6,63.4,29.81,SW,223,3.0,6.0,78,0.00,,---,0.00,VWS V13.01,2013-05-22 06:06:00,
2013-05-22 02:11:00,70.7,63.5,29.81,SSW,202,6.0,6.0,78,0.00,,---,0.00,VWS V13.01,2013-05-22 06:11:00,
2013-05-22 02:16:00,70.9,63.7,29.81,SW,219,4.0,10.0,78,0.00,,---,0.00,VWS V13.01,2013-05-22 06:16:00,
2013-05-22 02:21:00,71.2,64.0,29.81,SW,221,4.0,10.0,78,0.00,,---,0.00,VWS V13.01,2013-05-22 06:21:00,
2013-05-22 02:26:00,71.5,64.3,29.80,SW,221,8.0,10.0,78,0.00,,---,0.00,VWS V13.01,2013-05-22 06:26:00,
2013-05-22 02:31:00,71.7,64.5,29.80,WSW,240,3.0,8.0,78,0.00,,---,0.00,VWS V13.01,2013-05-22 06:31:00,
2013-05-22 02:36:00,71.9,64.3,29.80,SW,224,3.0,8.0,77,0.00,,---,0.00,VWS V13.01,2013-05-22 06:36:00,
2013-05-22 02:41:00,72.0,64.4,29.80,SW,215,3.0,9.0,77,0.00,,---,0.00,VWS V13.01,2013-05-22 06:41:00,
2013-05-22 02:46:00,72.3,64.3,29.79,SSW,211,8.0,11.0,76,0.00,,---,0.00,VWS V13.01,2013-05-22 06:46:00,
2013-05-22 02:51:00,72.4,64.0,29.79,SW,223,3.0,11.0,75,0.00,,---,0.00,VWS V13.01,2013-05-22 06:51:00,
2013-05-22 02:56:00,72.5,63.8,29.79,SSW,207,4.0,11.0,74,0.00,,---,0.00,VWS V13.01,2013-05-22 06:56:00,
2013-05-22 03:01:00,72.4,63.7,29.79,SSW,205,6.0,8.0,74,0.00,,---,0.00,VWS V13.01,2013-05-22 07:01:00,
2013-05-22 03:06:00,72.4,63.3,29.80,SSW,200,7.0,11.0,73,0.00,,---,0.00,VWS V13.01,2013-05-22 07:06:00,
2013-05-22 03:11:00,72.4,63.3,29.79,SW,223,6.0,11.0,73,0.00,,---,0.00,VWS V13.01,2013-05-22 07:11:00,
2013-05-22 03:16:00,72.3,62.8,29.79,WSW,241,6.0,11.0,72,0.00,,---,0.00,VWS V13.01,2013-05-22 07:16:00,
2013-05-22 03:21:00,72.3,62.8,29.79,SSW,209,3.0,11.0,72,0.00,,---,0.00,VWS V13.01,2013-05-22 07:21:00,
2013-05-22 03:26:00,72.3,62.4,29.80,SSW,212,5.0,11.0,71,0.00,,---,0.00,VWS V13.01,2013-05-22 07:26:00,
2013-05-22 03:31:00,72.3,62.0,29.80,SSW,212,5.0,13.0,70,0.00,,---,0.00,VWS V13.01,2013-05-22 07:31:00,
2013-05-22 03:36:00,72.2,61.9,29.80,SW,225,8.0,13.0,70,0.00,,---,0.00,VWS V13.01,2013-05-22 07:36:00,
2013-05-22 03:41:00,72.1,61.8,29.80,SW,227,7.0,13.0,70,0.00,,---,0.00,VWS V13.01,2013-05-22 07:41:00,
2013-05-22 03:46:00,72.0,61.7,29.81,SW,225,4.0,13.0,70,0.00,,---,0.00,VWS V13.01,2013-05-22 07:46:00,
2013-05-22 03:51:00,71.8,61.5,29.81,SW,231,5.0,13.0,70,0.00,,---,0.00,VWS V13.01,2013-05-22 07:51:00,
2013-05-22 03:56:00,71.8,61.5,29.81,SW,230,4.0,13.0,70,0.00,,---,0.00,VWS V13.01,2013-05-22 07:56:00,
2013-05-22 04:01:00,71.7,61.4,29.81,SSW,202,5.0,8.0,70,0.00,,---,0.00,VWS V13.01,2013-05-22 08:01:00,
2013-05-22 04:06:00,71.6,61.3,29.81,WSW,241,6.0,11.0,70,0.00,,---,0.00,VWS V13.01,2013-05-22 08:06:00,
2013-05-22 04:11:00,71.6,61.3,29.81,SW,225,6.0,11.0,70,0.00,,---,0.00,VWS V13.01,2013-05-22 08:11:00,
2013-05-22 04:16:00,71.5,61.2,29.82,SSW,204,6.0,11.0,70,0.00,,---,0.00,VWS V13.01,2013-05-22 08:16:00,
2013-05-22 04:21:00,71.5,61.2,29.82,SW,223,4.0,11.0,70,0.00,,---,0.00,VWS V13.01,2013-05-22 08:21:00,
2013-05-22 04:26:00,71.3,61.4,29.81,SW,222,4.0,11.0,71,0.00,,---,0.00,VWS V13.01,2013-05-22 08:26:00,
2013-05-22 04:31:00,71.2,61.3,29.81,SSW,211,5.0,9.0,71,0.00,,---,0.00,VWS V13.01,2013-05-22 08:31:00,
2013-05-22 04:36:00,71.1,61.2,29.82,SW,221,2.0,9.0,71,0.00,,---,0.00,VWS V13.01,2013-05-22 08:36:00,
2013-05-22 04:41:00,70.9,61.4,29.82,SW,214,3.0,9.0,72,0.00,,---,0.00,VWS V13.01,2013-05-22 08:41:00,
2013-05-22 04:46:00,70.8,61.3,29.82,SW,225,4.0,9.0,72,0.00,,---,0.00,VWS V13.01,2013-05-22 08:46:00,
2013-05-22 04:51:00,70.6,61.1,29.82,SW,221,3.0,9.0,72,0.00,,---,0.00,VWS V13.01,2013-05-22 08:51:00,
2013-05-22 04:56:00,70.4,61.3,29.82,SSW,207,2.0,9.0,73,0.00,,---,0.00,VWS V13.01,2013-05-22 08:56:00,
2013-05-22 05:01:00,70.2,61.2,29.82,SW,227,3.0,4.0,73,0.00,,---,0.00,VWS V13.01,2013-05-22 09:01:00,
2013-05-22 05:06:00,70.0,61.3,29.82,SW,225,2.0,5.0,74,0.00,,---,0.00,VWS V13.01,2013-05-22 09:06:00,
2013-05-22 05:11:00,69.9,61.2,29.82,SW,225,0.0,6.0,74,0.00,,---,0.00,VWS V13.01,2013-05-22 09:11:00,
2013-05-22 05:16:00,69.8,61.5,29.82,SSW,207,3.0,6.0,75,0.00,,---,0.00,VWS V13.01,2013-05-22 09:16:00,
2013-05-22 05:21:00,69.7,61.4,29.83,SW,218,3.0,7.0,75,0.00,,---,0.00,VWS V13.01,2013-05-22 09:21:00,
2013-05-22 05:26:00,69.6,61.3,29.82,SSW,200,3.0,7.0,75,0.00,,---,0.00,VWS V13.01,2013-05-22 09:26:00,
2013-05-22 05:31:00,69.5,61.2,29.83,SSW,202,3.0,4.0,75,0.00,,---,0.00,VWS V13.01,2013-05-22 09:31:00,
2013-05-22 05:36:00,69.4,61.1,29.82,SSW,202,3.0,6.0,75,0.00,,---,0.00,VWS V13.01,2013-05-22 09:36:00,
2013-05-22 05:41:00,69.3,61.4,29.82,SSW,210,4.0,6.0,76,0.00,,---,0.00,VWS V13.01,2013-05-22 09:41:00,
2013-05-22 05:46:00,69.3,61.4,29.82,SSW,200,5.0,6.0,76,0.00,,---,0.00,VWS V13.01,2013-05-22 09:46:00,
2013-05-22 05:51:00,69.3,61.4,29.82,SSW,210,4.0,7.0,76,0.00,,---,0.00,VWS V13.01,2013-05-22 09:51:00,
2013-05-22 05:56:00,69.3,61.4,29.82,SSW,203,2.0,7.0,76,0.00,,---,0.00,VWS V13.01,2013-05-22 09:56:00,
2013-05-22 06:01:00,69.1,61.2,29.82,SSW,200,4.0,6.0,76,0.00,,---,0.00,VWS V13.01,2013-05-22 10:01:00,
2013-05-22 06:06:00,69.1,61.2,29.82,SSW,194,4.0,6.0,76,0.00,,---,0.00,VWS V13.01,2013-05-22 10:06:00,
2013-05-22 06:11:00,69.0,61.1,29.82,South,186,2.0,6.0,76,0.00,,---,0.00,VWS V13.01,2013-05-22 10:11:00,
2013-05-22 06:16:00,69.0,61.1,29.83,SSW,210,3.0,7.0,76,0.00,,---,0.00,VWS V13.01,2013-05-22 10:16:00,
2013-05-22 06:21:00,68.9,61.4,29.82,SSW,196,4.0,7.0,77,0.00,,---,0.00,VWS V13.01,2013-05-22 10:21:00,
2013-05-22 06:26:00,68.8,61.3,29.83,SSW,194,6.0,7.0,77,0.00,,---,0.00,VWS V13.01,2013-05-22 10:26:00,
2013-05-22 06:31:00,68.7,61.2,29.83,SW,215,3.0,5.0,77,0.00,,---,0.00,VWS V13.01,2013-05-22 10:31:00,
2013-05-22 06:36:00,68.7,61.2,29.83,SSW,213,3.0,6.0,77,0.00,,---,0.00,VWS V13.01,2013-05-22 10:36:00,
2013-05-22 06:41:00,68.6,61.5,29.83,SW,236,2.0,6.0,78,0.00,,---,0.00,VWS V13.01,2013-05-22 10:41:00,
2013-05-22 06:46:00,68.5,61.4,29.84,SW,225,3.0,6.0,78,0.00,,---,0.00,VWS V13.01,2013-05-22 10:46:00,
2013-05-22 06:51:00,68.5,61.4,29.84,SSW,212,3.0,6.0,78,0.00,,---,0.00,VWS V13.01,2013-05-22 10:51:00,
2013-05-22 06:56:00,68.5,61.4,29.84,SW,232,3.0,6.0,78,0.00,,---,0.00,VWS V13.01,2013-05-22 10:56:00,
2013-05-22 07:01:00,68.6,61.5,29.84,SW,224,4.0,4.0,78,0.00,,---,0.00,VWS V13.01,2013-05-22 11:01:00,
2013-05-22 07:06:00,68.8,61.3,29.84,WSW,240,4.0,7.0,77,0.00,,---,0.00,VWS V13.01,2013-05-22 11:06:00,
2013-05-22 07:11:00,69.0,61.5,29.84,WSW,239,5.0,7.0,77,0.00,,---,0.00,VWS V13.01,2013-05-22 11:11:00,
2013-05-22 07:16:00,69.2,61.7,29.84,SW,218,4.0,7.0,77,0.00,,---,0.00,VWS V13.01,2013-05-22 11:16:00,
2013-05-22 07:21:00,69.5,62.0,29.84,SSW,212,5.0,7.0,77,0.00,,---,0.00,VWS V13.01,2013-05-22 11:21:00,
2013-05-22 07:26:00,69.8,62.3,29.84,SW,232,3.0,7.0,77,0.00,,---,0.00,VWS V13.01,2013-05-22 11:26:00,
2013-05-22 07:31:00,70.3,62.0,29.84,WSW,258,4.0,7.0,75,0.00,,---,0.00,VWS V13.01,2013-05-22 11:31:00,
2013-05-22 07:36:00,70.6,62.3,29.84,SW,227,2.0,7.0,75,0.00,,---,0.00,VWS V13.01,2013-05-22 11:36:00,
2013-05-22 07:41:00,70.8,62.1,29.84,SSW,210,3.0,10.0,74,0.00,,---,0.00,VWS V13.01,2013-05-22 11:41:00,
2013-05-22 07:46:00,71.1,62.4,29.84,SW,227,6.0,10.0,74,0.00,,---,0.00,VWS V13.01,2013-05-22 11:46:00,
2013-05-22 07:51:00,71.6,62.1,29.84,SW,225,4.0,10.0,72,0.00,,---,0.00,VWS V13.01,2013-05-22 11:51:00,
2013-05-22 07:56:00,71.8,61.9,29.84,SW,227,5.0,13.0,71,0.00,,---,0.00,VWS V13.01,2013-05-22 11:56:00,
2013-05-22 08:01:00,71.9,62.0,29.85,South,190,4.0,12.0,71,0.00,,---,0.00,VWS V13.01,2013-05-22 12:01:00,
2013-05-22 08:06:00,72.1,61.8,29.85,SSW,211,7.0,12.0,70,0.00,,---,0.00,VWS V13.01,2013-05-22 12:06:00,
2013-05-22 08:11:00,72.1,61.8,29.85,WSW,249,9.0,12.0,70,0.00,,---,0.00,VWS V13.01,2013-05-22 12:11:00,
2013-05-22 08:16:00,72.3,62.0,29.86,SW,229,3.0,12.0,70,0.00,,---,0.00,VWS V13.01,2013-05-22 12:16:00,
2013-05-22 08:21:00,72.6,61.9,29.86,South,188,4.0,12.0,69,0.00,,---,0.00,VWS V13.01,2013-05-22 12:21:00,
2013-05-22 08:26:00,73.0,61.8,29.86,SW,217,9.0,13.0,68,0.00,,---,0.00,VWS V13.01,2013-05-22 12:26:00,
2013-05-22 08:31:00,73.4,62.2,29.86,SW,214,3.0,10.0,68,0.00,,---,0.00,VWS V13.01,2013-05-22 12:31:00,
2013-05-22 08:36:00,73.8,62.2,29.86,SW,222,7.0,10.0,67,0.00,,---,0.00,VWS V13.01,2013-05-22 12:36:00,
2013-05-22 08:41:00,74.0,61.9,29.85,SSW,213,6.0,11.0,66,0.00,,---,0.00,VWS V13.01,2013-05-22 12:41:00,
2013-05-22 08:46:00,74.3,62.2,29.86,WSW,254,7.0,11.0,66,0.00,,---,0.00,VWS V13.01,2013-05-22 12:46:00,
2013-05-22 08:51:00,74.6,62.1,29.86,SSW,201,10.0,14.0,65,0.00,,---,0.00,VWS V13.01,2013-05-22 12:51:00,
2013-05-22 08:56:00,74.7,62.2,29.86,WSW,246,6.0,14.0,65,0.00,,---,0.00,VWS V13.01,2013-05-22 12:56:00,
2013-05-22 09:01:00,75.0,62.0,29.86,SSW,196,8.0,11.0,64,0.00,,---,0.00,VWS V13.01,2013-05-22 13:01:00,
2013-05-22 09:06:00,75.4,62.4,29.86,SW,224,6.0,11.0,64,0.00,,---,0.00,VWS V13.01,2013-05-22 13:06:00,
2013-05-22 09:11:00,75.5,62.0,29.86,SSW,205,7.0,13.0,63,0.00,,---,0.00,VWS V13.01,2013-05-22 13:11:00,
2013-05-22 09:16:00,75.7,62.2,29.86,SSW,199,8.0,13.0,63,0.00,,---,0.00,VWS V13.01,2013-05-22 13:16:00,
2013-05-22 09:21:00,75.8,62.3,29.85,SSW,206,3.0,13.0,63,0.00,,---,0.00,VWS V13.01,2013-05-22 13:21:00,
2013-05-22 09:26:00,76.2,61.8,29.85,SW,221,7.0,13.0,61,0.00,,---,0.00,VWS V13.01,2013-05-22 13:26:00,
2013-05-22 09:31:00,76.3,62.3,29.85,SSW,198,4.0,9.0,62,0.00,,---,0.00,VWS V13.01,2013-05-22 13:31:00,
2013-05-22 09:37:00,76.6,62.2,29.85,SSW,213,9.0,12.0,61,0.00,,---,0.00,VWS V13.01,2013-05-22 13:37:00,
2013-05-22 09:42:00,76.9,62.0,29.85,SW,221,5.0,13.0,60,0.00,,---,0.00,VWS V13.01,2013-05-22 13:42:00,
2013-05-22 09:47:00,77.1,62.2,29.85,SSW,201,6.0,13.0,60,0.00,,---,0.00,VWS V13.01,2013-05-22 13:47:00,
2013-05-22 09:52:00,77.5,62.1,29.85,SW,219,4.0,13.0,59,0.00,,---,0.00,VWS V13.01,2013-05-22 13:52:00,
2013-05-22 09:57:00,77.8,61.9,29.85,SW,214,7.0,13.0,58,0.00,,---,0.00,VWS V13.01,2013-05-22 13:57:00,
2013-05-22 10:02:00,78.1,63.1,29.84,SW,227,6.0,10.0,60,0.00,,---,0.00,VWS V13.01,2013-05-22 14:02:00,
2013-05-22 10:07:00,78.5,62.0,29.84,WSW,251,6.0,11.0,57,0.00,,---,0.00,VWS V13.01,2013-05-22 14:07:00,
2013-05-22 10:12:00,78.8,62.3,29.84,SW,232,7.0,11.0,57,0.00,,---,0.00,VWS V13.01,2013-05-22 14:12:00,
2013-05-22 10:17:00,79.1,62.6,29.84,SW,217,7.0,11.0,57,0.00,,---,0.00,VWS V13.01,2013-05-22 14:17:00,
2013-05-22 10:22:00,79.4,62.3,29.84,SW,221,5.0,12.0,56,0.00,,---,0.00,VWS V13.01,2013-05-22 14:22:00,
2013-05-22 10:27:00,79.7,62.6,29.84,SW,221,5.0,12.0,56,0.00,,---,0.00,VWS V13.01,2013-05-22 14:27:00,
2013-05-22 10:32:00,79.7,62.6,29.84,SSE,153,8.0,9.0,56,0.00,,---,0.00,VWS V13.01,2013-05-22 14:32:00,
2013-05-22 10:37:00,79.9,62.8,29.83,SSW,201,6.0,9.0,56,0.00,,---,0.00,VWS V13.01,2013-05-22 14:37:00,
2013-05-22 10:42:00,80.2,63.1,29.84,SW,227,11.0,11.0,56,0.00,,---,0.00,VWS V13.01,2013-05-22 14:42:00,
2013-05-22 10:47:00,80.3,63.2,29.84,SW,228,7.0,11.0,56,0.00,,---,0.00,VWS V13.01,2013-05-22 14:47:00,
2013-05-22 10:52:00,80.5,63.4,29.84,SW,221,8.0,12.0,56,0.00,,---,0.00,VWS V13.01,2013-05-22 14:52:00,
2013-05-22 10:57:00,80.6,62.4,29.84,West,263,2.0,12.0,54,0.00,,---,0.00,VWS V13.01,2013-05-22 14:57:00,
2013-05-22 11:02:00,81.1,63.4,29.84,West,259,7.0,7.0,55,0.00,,---,0.00,VWS V13.01,2013-05-22 15:02:00,
2013-05-22 11:07:00,81.5,62.2,29.83,SSW,206,5.0,10.0,52,0.00,,---,0.00,VWS V13.01,2013-05-22 15:07:00,
2013-05-22 11:12:00,81.8,63.0,29.83,South,189,3.0,11.0,53,0.00,,---,0.00,VWS V13.01,2013-05-22 15:12:00,
2013-05-22 11:17:00,82.1,62.8,29.83,SW,215,10.0,11.0,52,0.00,,---,0.00,VWS V13.01,2013-05-22 15:17:00,
2013-05-22 11:22:00,82.1,63.8,29.83,South,184,4.0,11.0,54,0.00,,---,0.00,VWS V13.01,2013-05-22 15:22:00,
2013-05-22 11:27:00,82.4,63.0,29.83,SW,223,4.0,13.0,52,0.00,,---,0.00,VWS V13.01,2013-05-22 15:27:00,
2013-05-22 11:32:00,82.7,63.8,29.83,South,184,8.0,8.0,53,0.00,,---,0.00,VWS V13.01,2013-05-22 15:32:00,
2013-05-22 11:37:00,83.0,63.0,29.83,SW,222,4.0,10.0,51,0.00,,---,0.00,VWS V13.01,2013-05-22 15:37:00,
2013-05-22 11:42:00,83.0,63.0,29.83,SSW,200,7.0,11.0,51,0.00,,---,0.00,VWS V13.01,2013-05-22 15:42:00,
2013-05-22 11:47:00,83.1,62.5,29.83,SSW,202,5.0,12.0,50,0.00,,---,0.00,VWS V13.01,2013-05-22 15:47:00,
2013-05-22 11:52:00,83.2,63.2,29.83,SW,233,9.0,12.0,51,0.00,,---,0.00,VWS V13.01,2013-05-22 15:52:00,
2013-05-22 11:57:00,83.2,62.7,29.83,SSW,193,7.0,12.0,50,0.00,,---,0.00,VWS V13.01,2013-05-22 15:57:00,
2013-05-22 12:02:00,83.6,63.0,29.82,South,183,7.0,11.0,50,0.00,,---,0.00,VWS V13.01,2013-05-22 16:02:00,
2013-05-22 12:07:00,83.7,62.5,29.82,South,180,10.0,14.0,49,0.00,,---,0.00,VWS V13.01,2013-05-22 16:07:00,
2013-05-22 12:12:00,83.9,62.7,29.83,SSW,209,7.0,16.0,49,0.00,,---,0.00,VWS V13.01,2013-05-22 16:12:00,
2013-05-22 12:17:00,83.9,62.7,29.83,SW,224,10.0,17.0,49,0.00,,---,0.00,VWS V13.01,2013-05-22 16:17:00,
2013-05-22 12:22:00,83.8,62.6,29.82,SSW,192,8.0,17.0,49,0.00,,---,0.00,VWS V13.01,2013-05-22 16:22:00,
2013-05-22 12:27:00,83.8,62.6,29.82,SSW,212,10.0,17.0,49,0.00,,---,0.00,VWS V13.01,2013-05-22 16:27:00,
2013-05-22 12:32:00,83.8,62.6,29.82,SSW,209,8.0,18.0,49,0.00,,---,0.00,VWS V13.01,2013-05-22 16:32:00,
2013-05-22 12:37:00,83.8,63.8,29.82,West,275,12.0,18.0,51,0.00,,---,0.00,VWS V13.01,2013-05-22 16:37:00,
2013-05-22 12:42:00,83.7,63.1,29.82,SSW,197,7.0,18.0,50,0.00,,---,0.00,VWS V13.01,2013-05-22 16:42:00,
2013-05-22 12:47:00,83.9,63.3,29.81,SSW,211,7.0,18.0,50,0.00,,---,0.00,VWS V13.01,2013-05-22 16:47:00,
2013-05-22 12:52:00,83.6,63.0,29.81,WSW,241,10.0,21.0,50,0.00,,---,0.00,VWS V13.01,2013-05-22 16:52:00,
2013-05-22 12:57:00,83.4,62.8,29.82,SW,228,7.0,21.0,50,0.00,,---,0.00,VWS V13.01,2013-05-22 16:57:00,
2013-05-22 13:02:00,83.2,63.8,29.81,WSW,245,7.0,11.0,52,0.00,,---,0.00,VWS V13.01,2013-05-22 17:02:00,
2013-05-22 13:07:00,83.9,64.4,29.81,SSW,207,4.0,11.0,52,0.00,,---,0.00,VWS V13.01,2013-05-22 17:07:00,
2013-05-22 13:12:00,85.0,65.4,29.81,SSW,204,13.0,17.0,52,0.00,,---,0.00,VWS V13.01,2013-05-22 17:12:00,
2013-05-22 13:17:00,85.2,64.5,29.80,SSW,211,6.0,17.0,50,0.00,,---,0.00,VWS V13.01,2013-05-22 17:17:00,
2013-05-22 13:22:00,85.2,63.9,29.80,SW,219,12.0,17.0,49,0.00,,---,0.00,VWS V13.01,2013-05-22 17:22:00,
2013-05-22 13:27:00,85.2,64.5,29.80,SSE,167,9.0,17.0,50,0.00,,---,0.00,VWS V13.01,2013-05-22 17:27:00,
2013-05-22 13:32:00,85.6,65.4,29.79,SW,225,13.0,17.0,51,0.00,,---,0.00,VWS V13.01,2013-05-22 17:32:00,
2013-05-22 13:37:00,85.5,65.3,29.80,South,171,9.0,18.0,51,0.00,,---,0.00,VWS V13.01,2013-05-22 17:37:00,
2013-05-22 13:42:00,85.7,64.4,29.80,WSW,240,10.0,18.0,49,0.00,,---,0.00,VWS V13.01,2013-05-22 17:42:00,
2013-05-22 13:47:00,85.5,65.3,29.80,WSW,239,10.0,18.0,51,0.00,,---,0.00,VWS V13.01,2013-05-22 17:47:00,
2013-05-22 13:52:00,85.7,64.9,29.79,SSW,195,6.0,21.0,50,0.00,,---,0.00,VWS V13.01,2013-05-22 17:52:00,
2013-05-22 13:57:00,86.1,64.7,29.79,SW,221,11.0,21.0,49,0.00,,---,0.00,VWS V13.01,2013-05-22 17:57:00,
2013-05-22 14:02:00,85.9,65.1,29.79,SSW,205,6.0,17.0,50,0.00,,---,0.00,VWS V13.01,2013-05-22 18:02:00,
2013-05-22 14:07:00,86.0,65.2,29.79,SW,217,11.0,17.0,50,0.00,,---,0.00,VWS V13.01,2013-05-22 18:07:00,
2013-05-22 14:12:00,86.1,64.7,29.79,South,184,9.0,18.0,49,0.00,,---,0.00,VWS V13.01,2013-05-22 18:12:00,
2013-05-22 14:17:00,86.2,64.8,29.78,SW,234,9.0,18.0,49,0.00,,---,0.00,VWS V13.01,2013-05-22 18:17:00,
2013-05-22 14:22:00,86.2,65.4,29.78,SSW,192,7.0,18.0,50,0.00,,---,0.00,VWS V13.01,2013-05-22 18:22:00,
2013-05-22 14:27:00,86.2,64.2,29.78,SSW,213,4.0,18.0,48,0.00,,---,0.00,VWS V13.01,2013-05-22 18:27:00,
2013-05-22 14:32:00,86.0,64.6,29.78,SSW,209,9.0,14.0,49,0.00,,---,0.00,VWS V13.01,2013-05-22 18:32:00,
2013-05-22 14:37:00,86.5,65.7,29.78,SSW,201,6.0,16.0,50,0.00,,---,0.00,VWS V13.01,2013-05-22 18:37:00,
2013-05-22 14:42:00,87.0,65.0,29.78,South,185,11.0,19.0,48,0.00,,---,0.00,VWS V13.01,2013-05-22 18:42:00,
2013-05-22 14:47:00,87.4,64.7,29.77,SW,232,6.0,19.0,47,0.00,,---,0.00,VWS V13.01,2013-05-22 18:47:00,
2013-05-22 14:52:00,87.2,65.1,29.77,SSW,204,9.0,19.0,48,0.00,,---,0.00,VWS V13.01,2013-05-22 18:52:00,
2013-05-22 14:57:00,87.0,63.1,29.77,SSW,200,7.0,21.0,45,0.00,,---,0.00,VWS V13.01,2013-05-22 18:57:00,
2013-05-22 15:02:00,86.9,63.7,29.77,South,186,10.0,15.0,46,0.00,,---,0.00,VWS V13.01,2013-05-22 19:02:00,
2013-05-22 15:07:00,87.1,64.4,29.77,SSW,194,11.0,18.0,47,0.00,,---,0.00,VWS V13.01,2013-05-22 19:07:00,
2013-05-22 15:12:00,87.1,64.4,29.76,WSW,239,7.0,18.0,47,0.00,,---,0.00,VWS V13.01,2013-05-22 19:12:00,
2013-05-22 15:17:00,87.1,63.8,29.76,SSW,196,9.0,18.0,46,0.00,,---,0.00,VWS V13.01,2013-05-22 19:17:00,
2013-05-22 15:22:00,86.6,64.0,29.76,WSW,240,5.0,18.0,47,0.00,,---,0.00,VWS V13.01,2013-05-22 19:22:00,
2013-05-22 15:27:00,86.9,64.3,29.75,WSW,247,11.0,18.0,47,0.00,,---,0.00,VWS V13.01,2013-05-22 19:27:00,
2013-05-22 15:32:00,86.9,63.7,29.75,SW,214,6.0,19.0,46,0.00,,---,0.00,VWS V13.01,2013-05-22 19:32:00,
2013-05-22 15:37:00,87.1,63.8,29.75,SW,221,6.0,19.0,46,0.00,,---,0.00,VWS V13.01,2013-05-22 19:37:00,
2013-05-22 15:42:00,87.2,64.5,29.75,South,188,7.0,20.0,47,0.00,,---,0.00,VWS V13.01,2013-05-22 19:42:00,
2013-05-22 15:47:00,86.8,64.2,29.75,SW,216,8.0,20.0,47,0.00,,---,0.00,VWS V13.01,2013-05-22 19:47:00,
2013-05-22 15:52:00,86.9,64.3,29.74,South,188,9.0,20.0,47,0.00,,---,0.00,VWS V13.01,2013-05-22 19:52:00,
2013-05-22 15:57:00,87.4,64.1,29.74,SSW,210,8.0,20.0,46,0.00,,---,0.00,VWS V13.01,2013-05-22 19:57:00,
2013-05-22 16:02:00,87.7,65.0,29.73,WSW,239,5.0,10.0,47,0.00,,---,0.00,VWS V13.01,2013-05-22 20:02:00,
2013-05-22 16:07:00,88.2,64.2,29.73,South,178,7.0,16.0,45,0.00,,---,0.00,VWS V13.01,2013-05-22 20:07:00,
2013-05-22 16:12:00,88.4,63.7,29.73,SW,234,10.0,16.0,44,0.00,,---,0.00,VWS V13.01,2013-05-22 20:12:00,
2013-05-22 16:17:00,88.2,64.8,29.73,SSW,208,8.0,16.0,46,0.00,,---,0.00,VWS V13.01,2013-05-22 20:17:00,
2013-05-22 16:22:00,87.5,62.9,29.73,SW,232,7.0,18.0,44,0.00,,---,0.00,VWS V13.01,2013-05-22 20:22:00,
2013-05-22 16:27:00,86.5,63.3,29.74,SW,235,5.0,18.0,46,0.00,,---,0.00,VWS V13.01,2013-05-22 20:27:00,
2013-05-22 16:32:00,85.9,62.7,29.74,SW,218,12.0,16.0,46,0.00,,---,0.00,VWS V13.01,2013-05-22 20:32:00,
2013-05-22 16:37:00,85.2,63.3,29.74,SSW,196,8.0,20.0,48,0.00,,---,0.00,VWS V13.01,2013-05-22 20:37:00,
2013-05-22 16:42:00,84.7,62.9,29.74,SW,217,9.0,20.0,48,0.00,,---,0.00,VWS V13.01,2013-05-22 20:42:00,
2013-05-22 16:47:00,84.2,64.1,29.75,SW,227,15.0,20.0,51,0.00,,---,0.00,VWS V13.01,2013-05-22 20:47:00,
2013-05-22 16:52:00,82.2,65.5,29.78,WSW,238,23.0,28.0,57,0.00,,---,0.00,VWS V13.01,2013-05-22 20:52:00,
2013-05-22 16:57:00,76.0,65.1,29.83,SSW,201,11.0,29.0,69,0.04,,---,0.04,VWS V13.01,2013-05-22 20:57:00,
2013-05-22 17:02:00,71.9,63.9,29.84,SW,229,6.0,12.0,76,0.04,,---,0.04,VWS V13.01,2013-05-22 21:02:00,
2013-05-22 17:07:00,70.2,63.4,29.83,SSW,193,3.0,12.0,79,0.04,,---,0.05,VWS V13.01,2013-05-22 21:07:00,
2013-05-22 17:12:00,69.4,62.6,29.81,South,187,11.0,13.0,79,0.05,,---,0.05,VWS V13.01,2013-05-22 21:12:00,
2013-05-22 17:17:00,68.6,61.5,29.80,SSE,164,4.0,13.0,78,0.05,,---,0.06,VWS V13.01,2013-05-22 21:17:00,
2013-05-22 17:22:00,67.9,61.9,29.80,SSW,195,5.0,13.0,81,0.06,,---,0.06,VWS V13.01,2013-05-22 21:22:00,
2013-05-22 17:27:00,67.6,61.9,29.79,South,169,7.0,13.0,82,0.07,,---,0.07,VWS V13.01,2013-05-22 21:27:00,
2013-05-22 17:32:00,67.4,61.7,29.77,South,184,3.0,7.0,82,0.08,,---,0.08,VWS V13.01,2013-05-22 21:32:00,
2013-05-22 17:37:00,67.2,61.5,29.77,ESE,117,2.0,7.0,82,0.08,,---,0.08,VWS V13.01,2013-05-22 21:37:00,
2013-05-22 17:42:00,67.5,62.5,29.77,South,180,1.0,7.0,84,0.08,,---,0.08,VWS V13.01,2013-05-22 21:42:00,
2013-05-22 17:47:00,68.5,63.5,29.76,SE,125,0.0,7.0,84,0.08,,---,0.08,VWS V13.01,2013-05-22 21:47:00,
2013-05-22 17:52:00,69.3,63.6,29.74,SE,146,4.0,7.0,82,0.08,,---,0.08,VWS V13.01,2013-05-22 21:52:00,
2013-05-22 17:57:00,69.6,63.2,29.73,SSE,147,0.0,8.0,80,0.08,,---,0.08,VWS V13.01,2013-05-22 21:57:00,
2013-05-22 18:02:00,69.8,63.0,29.74,SSW,196,5.0,7.0,79,0.04,,---,0.08,VWS V13.01,2013-05-22 22:02:00,
2013-05-22 18:07:00,70.0,63.2,29.75,SSW,209,6.0,10.0,79,0.04,,---,0.08,VWS V13.01,2013-05-22 22:07:00,
2013-05-22 18:12:00,70.2,63.4,29.75,SSW,201,3.0,10.0,79,0.04,,---,0.08,VWS V13.01,2013-05-22 22:12:00,
2013-05-22 18:17:00,70.3,63.1,29.76,SW,235,5.0,10.0,78,0.04,,---,0.08,VWS V13.01,2013-05-22 22:17:00,
2013-05-22 18:22:00,70.5,63.3,29.76,SW,222,4.0,10.0,78,0.04,,---,0.08,VWS V13.01,2013-05-22 22:22:00,
2013-05-22 18:27:00,70.5,63.3,29.76,SW,229,5.0,10.0,78,0.04,,---,0.08,VWS V13.01,2013-05-22 22:27:00,
2013-05-22 18:32:00,70.5,63.3,29.77,SSW,205,3.0,7.0,78,0.01,,---,0.08,VWS V13.01,2013-05-22 22:32:00,
2013-05-22 18:37:00,70.5,63.3,29.76,SSW,202,1.0,8.0,78,0.01,,---,0.08,VWS V13.01,2013-05-22 22:37:00,
2013-05-22 18:42:00,70.5,63.7,29.77,SSW,209,5.0,8.0,79,0.01,,---,0.08,VWS V13.01,2013-05-22 22:42:00,
2013-05-22 18:47:00,70.6,63.8,29.78,SSW,199,5.0,8.0,79,0.01,,---,0.08,VWS V13.01,2013-05-22 22:47:00,
2013-05-22 18:52:00,70.7,63.9,29.79,West,269,5.0,11.0,79,0.01,,---,0.08,VWS V13.01,2013-05-22 22:52:00,
2013-05-22 18:57:00,70.6,63.8,29.81,SW,225,5.0,15.0,79,0.01,,---,0.08,VWS V13.01,2013-05-22 22:57:00,
2013-05-22 19:02:00,70.4,63.2,29.81,SSW,206,11.0,19.0,78,0.00,,---,0.08,VWS V13.01,2013-05-22 23:02:00,
2013-05-22 19:07:00,70.4,62.8,29.81,SSW,202,8.0,19.0,77,0.00,,---,0.08,VWS V13.01,2013-05-22 23:07:00,
2013-05-22 19:12:00,69.8,62.3,29.79,SW,234,9.0,19.0,77,0.01,,---,0.09,VWS V13.01,2013-05-22 23:12:00,
2013-05-22 19:17:00,69.2,62.1,29.80,SSE,153,6.0,19.0,78,0.01,,---,0.09,VWS V13.01,2013-05-22 23:17:00,
2013-05-22 19:22:00,68.8,62.0,29.79,South,187,8.0,19.0,79,0.01,,---,0.09,VWS V13.01,2013-05-22 23:22:00,
2013-05-22 19:27:00,68.6,62.2,29.80,ESE,121,4.0,19.0,80,0.01,,---,0.09,VWS V13.01,2013-05-22 23:27:00,
2013-05-22 19:32:00,68.5,62.5,29.81,SSW,210,6.0,13.0,81,0.02,,---,0.10,VWS V13.01,2013-05-22 23:32:00,
2013-05-22 19:37:00,68.5,62.5,29.82,South,175,8.0,14.0,81,0.02,,---,0.10,VWS V13.01,2013-05-22 23:37:00,
2013-05-22 19:42:00,67.4,60.3,29.81,SSW,202,15.0,26.0,78,0.20,,---,0.30,VWS V13.01,2013-05-22 23:42:00,
2013-05-22 19:47:00,66.5,62.2,29.81,SW,215,9.0,26.0,86,0.23,,---,0.31,VWS V13.01,2013-05-22 23:47:00,
2013-05-22 19:52:00,66.0,62.0,29.80,South,170,5.0,26.0,87,0.24,,---,0.32,VWS V13.01,2013-05-22 23:52:00,
2013-05-22 19:57:00,65.7,62.0,29.79,South,172,1.0,26.0,88,0.24,,---,0.32,VWS V13.01,2013-05-22 23:57:00,
2013-05-22 20:02:00,65.3,61.7,29.78,ESE,115,1.0,7.0,88,0.24,,---,0.32,VWS V13.01,2013-05-23 00:02:00,
2013-05-22 20:07:00,65.2,61.9,29.78,ESE,103,0.0,7.0,89,0.24,,---,0.32,VWS V13.01,2013-05-23 00:07:00,
2013-05-22 20:12:00,65.0,61.7,29.78,SE,130,0.0,7.0,89,0.24,,---,0.32,VWS V13.01,2013-05-23 00:12:00,
2013-05-22 20:17:00,64.9,61.9,29.79,WSW,244,2.0,7.0,90,0.24,,---,0.32,VWS V13.01,2013-05-23 00:17:00,
2013-05-22 20:22:00,64.8,62.1,29.79,WSW,248,0.0,7.0,91,0.24,,---,0.32,VWS V13.01,2013-05-23 00:22:00,
2013-05-22 20:27:00,64.8,62.4,29.79,SW,223,2.0,7.0,92,0.24,,---,0.32,VWS V13.01,2013-05-23 00:27:00,
2013-05-22 20:32:00,64.7,62.0,29.79,South,182,4.0,5.0,91,0.23,,---,0.32,VWS V13.01,2013-05-23 00:32:00,
2013-05-22 20:37:00,64.6,61.9,29.78,South,177,0.0,5.0,91,0.23,,---,0.32,VWS V13.01,2013-05-23 00:37:00,
2013-05-22 20:42:00,64.5,61.8,29.79,South,190,0.0,5.0,91,0.23,,---,0.32,VWS V13.01,2013-05-23 00:42:00,
2013-05-22 20:47:00,64.5,61.8,29.79,SSE,168,0.0,5.0,91,0.23,,---,0.32,VWS V13.01,2013-05-23 00:47:00,
2013-05-22 20:52:00,64.5,61.8,29.79,SSE,150,0.0,8.0,91,0.23,,---,0.32,VWS V13.01,2013-05-23 00:52:00,
2013-05-22 20:57:00,64.7,62.0,29.78,SSE,163,3.0,8.0,91,0.23,,---,0.32,VWS V13.01,2013-05-23 00:57:00,
2013-05-22 21:02:00,64.9,61.9,29.78,South,171,2.0,8.0,90,0.00,,---,0.32,VWS V13.01,2013-05-23 01:02:00,
2013-05-22 21:07:00,65.3,62.0,29.78,South,190,2.0,8.0,89,0.00,,---,0.32,VWS V13.01,2013-05-23 01:07:00,
2013-05-22 21:12:00,65.5,62.2,29.78,South,186,1.0,8.0,89,0.00,,---,0.32,VWS V13.01,2013-05-23 01:12:00,
2013-05-22 21:17:00,65.6,62.3,29.78,South,181,7.0,8.0,89,0.00,,---,0.32,VWS V13.01,2013-05-23 01:17:00,
2013-05-22 21:22:00,65.9,62.6,29.78,SSE,162,2.0,8.0,89,0.00,,---,0.32,VWS V13.01,2013-05-23 01:22:00,
2013-05-22 21:27:00,65.9,62.2,29.78,South,191,0.0,8.0,88,0.00,,---,0.32,VWS V13.01,2013-05-23 01:27:00,
2013-05-22 21:32:00,66.1,62.1,29.78,South,189,2.0,4.0,87,0.00,,---,0.32,VWS V13.01,2013-05-23 01:32:00,
2013-05-22 21:37:00,66.2,62.2,29.78,South,188,2.0,5.0,87,0.00,,---,0.32,VWS V13.01,2013-05-23 01:37:00,
2013-05-22 21:42:00,66.2,62.2,29.78,SSE,166,0.0,5.0,87,0.00,,---,0.32,VWS V13.01,2013-05-23 01:42:00,
2013-05-22 21:47:00,66.1,62.5,29.78,SSE,165,0.0,5.0,88,0.00,,---,0.32,VWS V13.01,2013-05-23 01:47:00,
2013-05-22 21:52:00,66.0,62.3,29.78,South,169,0.0,5.0,88,0.00,,---,0.32,VWS V13.01,2013-05-23 01:52:00,
2013-05-22 21:57:00,66.0,62.3,29.78,South,183,0.0,5.0,88,0.00,,---,0.32,VWS V13.01,2013-05-23 01:57:00,
2013-05-22 22:02:00,65.9,62.2,29.78,South,183,0.0,1.0,88,0.00,,---,0.32,VWS V13.01,2013-05-23 02:02:00,
2013-05-22 22:07:00,65.9,62.2,29.79,South,183,0.0,1.0,88,0.00,,---,0.32,VWS V13.01,2013-05-23 02:07:00,
2013-05-22 22:12:00,65.8,62.2,29.79,South,183,0.0,1.0,88,0.00,,---,0.32,VWS V13.01,2013-05-23 02:12:00,
2013-05-22 22:17:00,65.7,62.4,29.79,South,183,0.0,1.0,89,0.00,,---,0.32,VWS V13.01,2013-05-23 02:17:00,
2013-05-22 22:22:00,65.6,62.3,29.79,South,183,0.0,1.0,89,0.00,,---,0.32,VWS V13.01,2013-05-23 02:22:00,
2013-05-22 22:27:00,65.6,62.3,29.79,South,183,0.0,1.0,89,0.00,,---,0.32,VWS V13.01,2013-05-23 02:27:00,
2013-05-22 22:32:00,65.5,62.2,29.79,South,183,0.0,1.0,89,0.00,,---,0.32,VWS V13.01,2013-05-23 02:32:00,
2013-05-22 22:37:00,65.4,62.1,29.79,South,183,0.0,1.0,89,0.00,,---,0.32,VWS V13.01,2013-05-23 02:37:00,
2013-05-22 22:42:00,65.3,62.0,29.79,South,183,0.0,1.0,89,0.00,,---,0.32,VWS V13.01,2013-05-23 02:42:00,
2013-05-22 22:47:00,65.2,61.9,29.79,South,183,0.0,1.0,89,0.00,,---,0.32,VWS V13.01,2013-05-23 02:47:00,
2013-05-22 22:52:00,65.1,61.8,29.79,South,183,0.0,1.0,89,0.00,,---,0.32,VWS V13.01,2013-05-23 02:52:00,
2013-05-22 22:57:00,65.0,61.7,29.79,South,183,0.0,1.0,89,0.00,,---,0.32,VWS V13.01,2013-05-23 02:57:00,
2013-05-22 23:02:00,64.9,61.6,29.79,South,183,0.0,0.0,89,0.00,,---,0.32,VWS V13.01,2013-05-23 03:02:00,
2013-05-22 23:07:00,64.8,61.5,29.79,South,183,0.0,1.0,89,0.00,,---,0.32,VWS V13.01,2013-05-23 03:07:00,
2013-05-22 23:12:00,64.7,61.7,29.79,South,183,0.0,1.0,90,0.00,,---,0.32,VWS V13.01,2013-05-23 03:12:00,
2013-05-22 23:17:00,64.6,61.6,29.79,South,183,0.0,1.0,90,0.00,,---,0.32,VWS V13.01,2013-05-23 03:17:00,
2013-05-22 23:22:00,64.5,61.2,29.79,South,183,0.0,1.0,89,0.00,,---,0.32,VWS V13.01,2013-05-23 03:22:00,
2013-05-22 23:27:00,64.5,61.5,29.78,South,183,0.0,1.0,90,0.00,,---,0.32,VWS V13.01,2013-05-23 03:27:00,
2013-05-22 23:32:00,64.4,61.4,29.78,SW,214,1.0,2.0,90,0.00,,---,0.32,VWS V13.01,2013-05-23 03:32:00,
2013-05-22 23:37:00,64.4,61.1,29.78,SW,235,6.0,6.0,89,0.00,,---,0.32,VWS V13.01,2013-05-23 03:37:00,
2013-05-22 23:42:00,65.1,60.2,29.78,SSW,198,6.0,10.0,84,0.00,,---,0.32,VWS V13.01,2013-05-23 03:42:00,
2013-05-22 23:47:00,66.4,60.0,29.78,SW,232,5.0,13.0,80,0.00,,---,0.32,VWS V13.01,2013-05-23 03:47:00,
2013-05-22 23:52:00,67.0,59.9,29.78,SW,236,5.0,13.0,78,0.00,,---,0.32,VWS V13.01,2013-05-23 03:52:00,
2013-05-22 23:57:00,67.3,60.2,29.78,SW,224,2.0,13.0,78,0.00,,---,0.32,VWS V13.01,2013-05-23 03:57:00,